Pittsburgh, PA

6:16 AM EDT on September 18, 2019 (GMT -0400)
Pittsburgh International

Weather History for KPIT - August, 2019

Change the Weather History Date:

Monday, August 19, 2019

  Actual Average Record
Temperature  
Mean Temperature 77 °F 71 °F  
Max Temperature 86 °F 82 °F 96 °F (1884)
Min Temperature 67 °F 61 °F 43 °F (1977)
Degree Days  
Heating Degree Days 0 0  
Month to date heating degree days 0 0  
Since 1 June heating degree days 35 42  
Since 1 July heating degree days 0 4  
Cooling Degree Days 12 7  
Month to date cooling degree days 162 137  
Year to date cooling degree days 699 580  
Since 1 June cooling degree days 616 528  
Growing Degree Days 26 (Base 50)    
Moisture  
Dew Point 65 °F    
Average Humidity 73    
Maximum Humidity 100    
Minimum Humidity 45    
Precipitation  
Precipitation 0.03 in 0.11 in 1.91 in (1990)
Month to date precipitation 1.51 2.20  
Year to date precipitation 33.82 25.43  
Snow  
Snow 0.00 in 0.00 in 0.00 in (2002)
Month to date snowfall 0.0 0.0  
Since 1 July snowfall 0.0 0.0  
Snow Depth 0.00 in    
Sea Level Pressure  
Sea Level Pressure 30.03 in    
Wind  
Wind Speed 5 mph (West)    
Max Wind Speed 30 mph    
Max Gust Speed 38 mph    
Visibility 10 miles    
Events Rain , Thunderstorm    
T = Trace of Precipitation, MM = Missing Value Source: NWS Daily Summary

Daily Weather History Graph

Daily Weather History Graph

Search for Another Location

Airport or City:

Astronomy

Aug. 19, 2019 Rise Set
Actual Time 6:35 AM EDT 8:13 PM EDT
Civil Twilight 6:06 AM EDT 8:41 PM EDT
Nautical Twilight 5:31 AM EDT 9:16 PM EDT
Astronomical Twilight 4:54 AM EDT 9:53 PM EDT
Moon 10:32 PM EDT (8/19) 10:15 AM EDT (8/19)
Length of Visible Light 14h 35m
Length of Day
13h 37m
Waning Gibbous, 85% of the Moon is Illuminated
Aug 19
Waning Gibbous
Aug 23
Last Quarter
Aug 30
New
Sep 5
First Quarter
Sep 14
Full

Hourly Weather History & Observations

Time (EDT) Temp. Heat Index Dew Point Humidity Pressure Visibility Wind Dir Wind Speed Gust Speed Precip Events Conditions
12:51 AM 75.0 °F - 69.1 °F 82% 29.96 in 10.0 mi SSW 4.6 mph - N/A   Mostly Cloudy
1:51 AM 75.9 °F - 68.0 °F 76% 29.96 in 10.0 mi Calm Calm - N/A   Mostly Cloudy
2:37 AM 75.0 °F - 64.9 °F 71% 30.01 in 7.0 mi WNW 28.8 mph 33.4 mph 0.00 in Rain , Thunderstorm Light Thunderstorms and Rain
2:51 AM 69.1 °F - 64.0 °F 84% 30.01 in 3.0 mi NW 21.9 mph 38.0 mph N/A Rain , Thunderstorm Thunderstorms and Rain
3:51 AM 69.1 °F - 64.9 °F 87% 29.99 in 10.0 mi North 5.8 mph - 0.03 in   Overcast
4:51 AM 66.9 °F - 66.0 °F 97% 29.97 in 10.0 mi South 4.6 mph - 0.00 in   Overcast
5:51 AM 66.9 °F - 64.9 °F 93% 29.99 in 10.0 mi Variable 5.8 mph - N/A   Mostly Cloudy
6:33 AM 66.9 °F - 64.9 °F 93% 30.02 in 10.0 mi SSW 4.6 mph - N/A   Mostly Cloudy
6:51 AM 66.9 °F - 64.0 °F 90% 30.03 in 10.0 mi NW 5.8 mph - N/A   Mostly Cloudy
7:51 AM 68.0 °F - 64.9 °F 90% 30.04 in 10.0 mi WNW 3.5 mph - N/A   Mostly Cloudy
8:51 AM 70.0 °F - 64.9 °F 84% 30.06 in 10.0 mi WSW 3.5 mph - N/A   Scattered Clouds
9:51 AM 73.9 °F - 64.9 °F 73% 30.07 in 10.0 mi SW 8.1 mph - N/A   Scattered Clouds
10:51 AM 75.9 °F - 64.0 °F 67% 30.08 in 10.0 mi NNW 4.6 mph - N/A   Scattered Clouds
11:51 AM 80.1 °F 81.5 °F 63.0 °F 56% 30.08 in 10.0 mi NW 5.8 mph - N/A   Scattered Clouds
12:51 PM 82.0 °F 83.1 °F 63.0 °F 52% 30.07 in 10.0 mi Variable 4.6 mph - N/A   Scattered Clouds
1:51 PM 84.0 °F 85.4 °F 64.0 °F 51% 30.07 in 10.0 mi SW 8.1 mph - N/A   Partly Cloudy
2:51 PM 84.9 °F 85.9 °F 63.0 °F 48% 30.06 in 10.0 mi West 6.9 mph - N/A   Partly Cloudy
3:51 PM 86.0 °F 86.3 °F 62.1 °F 44% 30.05 in 10.0 mi Variable 5.8 mph - N/A   Partly Cloudy
4:51 PM 84.0 °F 84.9 °F 63.0 °F 49% 30.05 in 10.0 mi West 10.4 mph - N/A   Mostly Cloudy
5:51 PM 84.9 °F 86.6 °F 64.9 °F 51% 30.04 in 10.0 mi West 5.8 mph - N/A   Scattered Clouds
6:51 PM 84.0 °F 85.4 °F 64.0 °F 51% 30.03 in 10.0 mi WNW 9.2 mph - N/A   Partly Cloudy
7:51 PM 80.1 °F 82.1 °F 66.0 °F 62% 30.04 in 10.0 mi WNW 3.5 mph - N/A   Partly Cloudy
8:51 PM 80.1 °F 81.9 °F 64.9 °F 60% 30.05 in 10.0 mi North 4.6 mph - N/A   Partly Cloudy
9:51 PM 75.9 °F - 66.0 °F 71% 30.08 in 10.0 mi Calm Calm - N/A   Partly Cloudy
10:51 PM 73.9 °F - 66.9 °F 79% 30.09 in 10.0 mi Calm Calm - N/A   Partly Cloudy